Temp
63 59 55 60 63 65 65 60 60 65 66 60 62 63 67 62 61 62 61 60 58 56 55 56 56 52 51 51 51 50 50 50 51 50 49 50 50 52 55 56 56 56 57 57
55 52 63 67 63 62 61 56 57 63 65 57 60 60 66 66 60 62 61 59 57 54 54 54 55 52 50 49 50 50 51 52 53 53 53 54 54 54 54 53 54 54 54 54
56 62 64 62 57 55 57 55 56 57 60 58 56 54 58 65 60 55 57 58 56 54 52 52 53 51 51 50 51 51 52 53 54 55 56 54 54 54 52 51 51 51 52 52
57 65 58 57 54 56 51 62 58 56 53 47 57 45 58 62 50 50 51 52 53 53 52 52 52 52 52 52 53 55 56 56 57 59 58 55 52 49 50 50 50 50 50 49
56 54 53 52 56 58 55 58 56 55 51 51 52 45 54 56 48 49 50 50 52 51 51 50 51 50 51 52 52 53 53 52 54 54 55 52 50 50 51 50 49 49 48 47
56 57 58 58 55 58 56 52 50 50 50 39 49 48 51 53 52 54 50 50 50 50 51 51 50 49 49 51 51 51 51 51 51 53 53 51 49 49 48 48 47 47 47 46
53 53 56 56 51 52 53 49 39 36 35 35 49 48 52 58 54 56 48 48 49 50 49 48 47 47 47 48 49 49 50 49 52 51 51 50 49 49 47 47 46 45 45 44
48 45 53 55 55 51 48 50 40 30 33 40 42 40 51 48 53 55 52 50 49 48 49 47 47 47 47 47 49 50 49 48 49 48 48 48 48 48 47 46 45 45 42 42
49 48 54 56 58 58 48 43 51 34 32 34 45 49 46 45 45 50 48 47 47 47 48 47 48 48 48 48 49 48 47 47 47 47 47 47 47 46 45 45 45 44 42 42
54 44 50 51 53 55 52 54 38 35 29 30 44 46 47 39 41 45 45 45 46 47 47 47 48 48 48 48 49 49 48 47 46 47 47 46 45 46 45 44 41 41 40 40
52 48 42 46 45 46 44 44 47 47 43 36 37 45 58 55 47 45 46 46 46 46 46 47 47 48 48 48 48 47 47 46 45 46 45 44 43 43 43 41 40 39 39 38
52 44 38 43 51 53 54 49 48 40 36 41 40 44 51 52 53 49 48 47 47 48 48 48 48 48 47 47 47 47 46 45 45 46 44 43 42 41 40 38 38 38 37 36
48 35 33 34 43 45 43 48 50 49 42 37 35 43 46 48 50 51 49 48 48 49 48 48 47 46 46 46 46 47 46 45 45 44 42 41 40 39 38 37 36 35 35 34
47 36 35 39 45 47 38 43 45 44 36 39 41 46 45 46 47 48 49 49 49 49 48 47 47 46 46 46 46 47 46 46 44 43 41 39 38 38 37 35 34 33 33 32
43 32 36 40 43 39 40 42 43 40 44 40 45 46 53 52 49 50 50 50 48 47 47 48 46 46 46 46 46 47 46 43 42 41 39 37 37 36 34 33 32 31 30 29
38 33 35 34 40 37 32 40 44 45 45 47 48 48 54 58 55 53 50 49 47 47 48 47 47 45 44 44 45 44 43 41 40 39 37 36 34 32 31 29 28 28 27 27
33 33 32 31 34 30 27 34 40 44 47 48 41 47 46 45 47 50 49 49 47 48 47 46 46 45 44 44 44 42 41 39 38 35 34 32 31 29 28 27 26 25 24 24
32 32 32 30 28 24 36 39 45 44 48 49 43 41 43 46 49 48 50 48 46 46 47 46 46 46 45 44 43 41 38 35 34 31 28 30 29 27 26 24 23 23 23 22
32 33 27 27 27 33 37 37 38 37 38 43 43 44 41 37 39 43 46 47 49 48 48 47 47 45 44 42 41 37 33 32 30 29 28 28 26 22 23 19 21 21 19 19
31 32 32 26 25 24 36 34 36 38 30 39 39 41 38 38 38 46 41 41 42 44 45 44 45 44 41 40 37 32 31 30 28 29 28 27 22 18 17 19 17 18 17 17
27 28 29 28 27 31 37 35 36 28 34 37 39 36 35 37 43 41 41 40 41 40 39 42 40 38 38 35 32 30 30 28 30 29 26 23 21 17 18 16 17 15 14 15
29 27 26 29 26 23 35 32 32 37 37 37 38 38 37 39 38 38 39 38 37 36 37 36 34 33 31 32 31 30 28 30 27 25 22 18 16 17 16 12 13 12 12 11
27 34 32 33 32 32 34 34 38 38 38 37 39 38 40 37 37 37 36 37 36 35 33 33 32 29 29 29 31 28 29 25 22 19 16 14 13 14 14 12 12 13 13 12
29 31 31 32 31 33 34 37 36 38 38 39 38 38 37 37 37 34 34 33 32 32 31 30 28 27 26 27 28 29 25 22 17 15 13 12 10 12 11 13 14 14 14 13
31 31 27 29 31 33 36 37 39 37 36 34 34 35 36 37 33 33 32 31 32 32 30 29 28 28 27 25 25 24 22 17 16 15 13 14 14 12 13 13 15 14 15 14
32 31 30 31 37 38 40 41 40 35 34 36 34 32 34 35 33 33 32 33 32 30 29 27 27 26 26 24 23 20 17 17 16 14 14 15 15 13 13 14 13 18 18 19
MSLP
1014.29 1013.84 1012.51 1012.07 1012.45 1011.82 1011.25 1011.34 1011.01 1011.04 1011.90 1012.55 1012.08 1011.86 1012.06 1013.62 1014.59 1015.03 1015.97 1017.04 1018.11 1019.25 1020.51 1021.14 1021.63 1022.32 1022.63 1022.90 1023.07 1023.25 1023.36 1023.63 1023.58 1023.64 1023.91 1024.10 1024.78 1025.31 1025.72 1026.22 1026.58 1026.77 1026.89 1026.89
1014.35 1012.90 1012.01 1012.19 1012.38 1012.10 1011.98 1011.81 1011.46 1011.42 1011.96 1013.01 1012.02 1011.42 1011.61 1012.31 1013.65 1014.56 1015.64 1016.85 1018.09 1019.54 1020.42 1021.17 1021.66 1022.41 1022.82 1023.15 1023.33 1023.53 1023.63 1023.76 1023.87 1023.87 1024.07 1024.40 1025.09 1025.85 1026.46 1027.01 1027.29 1027.55 1027.77 1027.94
1012.31 1011.36 1011.78 1012.16 1012.53 1012.50 1012.21 1011.96 1011.86 1011.90 1012.23 1012.93 1012.36 1010.88 1010.85 1011.38 1013.37 1015.09 1016.11 1016.97 1018.18 1019.30 1020.27 1021.14 1021.69 1022.24 1022.91 1023.32 1023.51 1023.63 1023.84 1023.91 1024.05 1024.21 1024.59 1025.10 1025.69 1026.27 1026.96 1027.50 1027.85 1028.14 1028.19 1028.31
1012.11 1011.56 1012.12 1012.14 1012.41 1012.83 1012.06 1012.00 1012.53 1012.69 1013.04 1012.25 1012.46 1009.64 1009.69 1010.39 1013.11 1014.85 1016.22 1017.35 1018.37 1019.44 1020.49 1021.29 1021.81 1022.24 1022.86 1023.35 1023.64 1023.79 1023.91 1024.07 1024.22 1024.18 1024.58 1025.10 1025.91 1026.71 1027.70 1028.30 1028.88 1029.25 1029.49 1029.67
1010.99 1011.66 1012.01 1012.00 1011.83 1012.72 1012.37 1012.82 1013.21 1013.37 1013.33 1012.89 1012.34 1012.25 1009.58 1010.63 1012.44 1013.69 1015.55 1017.08 1018.37 1019.70 1020.60 1021.32 1022.04 1022.70 1023.22 1023.58 1023.93 1024.34 1024.56 1024.74 1024.84 1024.97 1025.39 1025.89 1026.46 1027.27 1027.90 1028.43 1028.93 1029.42 1029.93 1030.35
1011.95 1012.63 1012.33 1012.04 1012.61 1012.86 1013.47 1013.87 1014.41 1014.59 1014.12 1012.31 1012.05 1011.99 1008.39 1009.79 1010.58 1012.39 1015.04 1016.70 1018.03 1019.54 1020.66 1021.67 1022.55 1023.21 1023.68 1024.08 1024.39 1024.77 1025.02 1025.26 1025.46 1025.70 1026.14 1026.65 1027.18 1027.86 1028.50 1029.12 1029.61 1030.10 1030.46 1030.84
1011.82 1011.68 1012.28 1012.52 1012.94 1013.80 1013.64 1013.91 1014.33 1014.46 1014.04 1011.74 1011.29 1010.90 1008.66 1009.66 1010.89 1012.01 1014.32 1016.32 1017.79 1019.00 1020.20 1021.50 1022.45 1023.17 1023.84 1024.33 1024.77 1025.15 1025.40 1025.64 1026.02 1026.39 1026.81 1027.23 1027.72 1028.39 1028.95 1029.52 1030.16 1030.63 1030.98 1031.45
1010.02 1009.90 1010.76 1011.41 1010.94 1011.66 1012.71 1012.98 1013.19 1013.47 1013.39 1012.03 1012.09 1010.29 1009.41 1010.81 1011.49 1012.56 1014.47 1016.34 1017.85 1019.07 1020.13 1021.27 1022.14 1022.87 1023.58 1024.17 1024.62 1025.05 1025.48 1025.99 1026.56 1026.97 1027.37 1027.89 1028.31 1028.86 1029.39 1029.85 1030.26 1030.72 1031.75 1032.24
1009.39 1009.44 1009.88 1010.63 1010.95 1011.37 1012.21 1012.39 1013.22 1014.24 1014.46 1013.17 1010.52 1009.68 1010.24 1011.37 1012.33 1013.08 1014.51 1016.20 1017.60 1018.72 1019.82 1020.95 1022.02 1022.85 1023.57 1024.19 1024.77 1025.34 1025.84 1026.37 1026.91 1027.41 1027.86 1028.34 1028.77 1029.18 1029.68 1030.41 1031.06 1031.69 1031.73 1031.96
1009.62 1010.00 1010.56 1011.37 1011.81 1011.45 1011.52 1012.00 1013.50 1014.44 1013.24 1011.57 1008.85 1008.43 1008.58 1010.60 1011.84 1013.02 1014.31 1015.43 1016.86 1018.28 1019.47 1020.55 1021.59 1022.39 1023.23 1023.99 1024.70 1025.38 1025.93 1026.36 1027.01 1027.62 1028.21 1028.74 1029.28 1029.80 1030.38 1030.97 1031.22 1031.82 1032.25 1032.17
1010.66 1010.93 1011.72 1012.07 1010.99 1010.56 1011.87 1011.61 1011.57 1011.70 1011.30 1010.08 1008.84 1007.39 1007.10 1008.10 1010.15 1011.63 1013.22 1014.66 1016.03 1017.44 1018.79 1019.97 1021.18 1022.23 1023.11 1023.89 1024.53 1025.19 1025.77 1026.39 1027.13 1027.82 1028.45 1029.16 1029.72 1030.20 1030.62 1030.97 1031.40 1031.90 1032.43 1032.67
1010.65 1011.34 1011.15 1010.62 1010.51 1010.54 1010.14 1009.93 1010.52 1010.28 1010.28 1009.77 1009.05 1007.21 1007.82 1008.60 1009.57 1011.39 1012.89 1014.35 1015.90 1017.17 1018.33 1019.54 1020.76 1021.90 1022.84 1023.69 1024.39 1025.05 1025.75 1026.49 1027.04 1027.67 1028.42 1029.14 1029.91 1030.44 1030.73 1031.13 1031.61 1032.15 1032.83 1033.19
1011.28 1012.04 1011.77 1011.43 1011.46 1011.35 1010.46 1009.81 1009.55 1009.64 1009.74 1008.67 1008.86 1007.41 1008.62 1009.21 1009.77 1010.98 1012.35 1013.85 1015.32 1016.70 1018.02 1019.13 1020.28 1021.20 1022.11 1023.07 1023.96 1024.69 1025.46 1026.29 1027.06 1027.75 1028.51 1029.27 1029.90 1030.36 1030.90 1031.63 1032.26 1032.67 1033.17 1033.32
1011.56 1011.63 1011.01 1009.41 1008.43 1008.63 1009.83 1009.13 1009.29 1009.39 1009.12 1006.61 1007.07 1007.25 1008.42 1009.01 1009.63 1010.68 1011.68 1013.08 1014.48 1015.76 1016.89 1018.06 1019.27 1020.26 1021.37 1022.29 1023.40 1024.26 1025.09 1026.07 1026.97 1027.75 1028.52 1029.21 1030.00 1030.42 1031.18 1032.12 1032.35 1032.87 1033.26 1033.38
1011.78 1011.69 1011.40 1010.08 1009.95 1009.57 1009.65 1008.94 1008.77 1008.63 1006.80 1007.59 1005.18 1006.77 1007.11 1008.02 1009.04 1009.90 1011.17 1012.74 1014.00 1015.04 1016.12 1016.85 1018.00 1019.34 1020.67 1021.62 1022.90 1023.88 1024.94 1026.06 1026.93 1027.83 1028.69 1029.47 1030.15 1030.92 1031.72 1032.28 1032.52 1032.97 1033.35 1033.57
1012.15 1011.48 1011.56 1010.46 1010.31 1010.02 1009.99 1009.54 1008.42 1007.63 1007.03 1006.67 1006.14 1006.07 1006.85 1007.13 1008.68 1009.62 1010.63 1011.99 1013.06 1013.97 1014.75 1015.87 1017.15 1018.57 1019.95 1020.71 1021.92 1023.19 1024.37 1025.73 1026.62 1027.62 1028.64 1029.60 1030.39 1031.17 1032.06 1032.44 1032.72 1032.93 1033.09 1033.25
1012.36 1011.92 1011.45 1010.33 1010.54 1010.68 1010.10 1007.45 1007.97 1007.03 1006.82 1006.50 1006.50 1006.29 1007.28 1008.65 1009.23 1009.78 1010.61 1011.54 1012.19 1012.86 1013.86 1014.96 1015.89 1017.09 1018.85 1020.01 1021.32 1022.67 1024.03 1025.53 1026.64 1027.54 1028.67 1029.50 1030.56 1031.44 1031.95 1032.36 1032.55 1032.74 1032.97 1033.10
1012.34 1011.98 1011.34 1010.77 1011.29 1010.30 1007.95 1007.66 1006.73 1006.55 1006.68 1006.84 1007.62 1008.09 1008.21 1009.35 1009.81 1010.37 1010.76 1011.32 1011.93 1012.82 1013.71 1014.74 1015.91 1017.19 1018.51 1019.84 1021.15 1022.50 1023.95 1025.29 1026.43 1027.65 1028.62 1029.52 1030.68 1031.40 1031.85 1031.97 1032.35 1032.58 1032.79 1033.20
1012.64 1012.01 1011.55 1011.14 1010.55 1009.14 1008.44 1008.40 1008.22 1007.85 1007.29 1007.71 1008.08 1008.83 1009.61 1010.54 1011.35 1011.00 1011.10 1011.45 1011.65 1012.27 1013.13 1014.05 1015.19 1016.64 1018.29 1019.51 1020.78 1022.06 1023.65 1025.18 1026.23 1027.23 1028.35 1029.44 1030.49 1031.16 1031.41 1031.84 1032.21 1032.54 1032.97 1033.32
1012.72 1012.19 1011.32 1011.18 1010.22 1009.55 1008.34 1008.75 1008.83 1008.72 1008.61 1007.76 1008.29 1009.00 1009.61 1010.80 1011.23 1010.34 1010.97 1011.77 1012.32 1012.57 1013.35 1014.25 1015.38 1016.81 1018.32 1019.40 1020.50 1021.75 1023.38 1024.75 1025.92 1026.82 1027.97 1029.21 1030.29 1030.78 1031.14 1031.63 1032.07 1032.57 1032.98 1033.26
1012.21 1011.85 1010.98 1010.50 1009.75 1009.32 1008.70 1009.24 1009.85 1010.05 1008.85 1008.23 1008.46 1009.14 1009.95 1010.66 1010.46 1011.01 1011.63 1012.54 1013.15 1013.61 1014.36 1015.04 1016.01 1017.14 1018.28 1019.49 1020.42 1021.87 1023.10 1024.26 1025.39 1026.61 1027.91 1029.25 1030.01 1030.34 1031.02 1031.68 1032.05 1032.40 1032.74 1033.06
1010.25 1010.78 1010.73 1010.79 1010.31 1009.58 1008.95 1009.89 1009.98 1009.27 1009.06 1009.29 1009.58 1009.93 1010.31 1010.54 1011.20 1011.56 1012.19 1013.15 1013.99 1014.63 1015.49 1016.28 1017.11 1017.96 1019.03 1019.88 1020.53 1021.75 1022.86 1024.05 1025.26 1026.64 1028.05 1029.07 1029.61 1030.31 1031.05 1031.47 1031.93 1032.32 1032.65 1032.74
1010.24 1009.56 1009.74 1009.78 1009.35 1009.14 1009.30 1009.34 1009.35 1009.53 1009.54 1009.89 1009.94 1010.31 1010.61 1011.17 1011.64 1012.06 1012.73 1013.58 1014.42 1015.16 1016.12 1016.77 1017.42 1018.55 1019.57 1020.18 1020.70 1021.66 1022.84 1024.03 1025.39 1026.87 1028.02 1028.82 1029.65 1030.33 1030.76 1031.31 1031.78 1031.98 1032.02 1032.04
1009.98 1009.96 1009.79 1009.57 1009.46 1009.34 1009.48 1009.69 1009.92 1009.83 1009.99 1010.27 1010.61 1010.82 1011.24 1011.46 1011.96 1012.61 1013.39 1014.19 1014.90 1015.55 1016.34 1017.06 1017.82 1018.83 1019.73 1020.40 1021.01 1021.70 1022.91 1024.09 1025.52 1026.73 1027.76 1028.77 1029.64 1030.24 1030.71 1030.98 1031.16 1031.25 1031.21 1031.26
1009.86 1010.01 1009.86 1009.60 1009.56 1009.61 1009.42 1009.53 1009.78 1010.18 1010.68 1011.01 1011.21 1011.41 1011.52 1011.89 1012.44 1012.83 1013.68 1014.41 1015.12 1015.88 1016.64 1017.31 1017.95 1018.72 1019.48 1020.42 1021.22 1021.97 1022.84 1023.97 1025.22 1026.38 1027.49 1028.53 1029.18 1029.73 1029.97 1030.31 1030.36 1030.49 1030.59 1030.77
1009.20 1009.16 1009.27 1008.78 1008.62 1008.79 1008.75 1008.54 1009.15 1010.26 1010.61 1010.90 1011.21 1011.65 1011.89 1012.24 1012.69 1013.25 1013.91 1014.48 1015.21 1015.89 1016.54 1017.30 1018.00 1018.73 1019.43 1020.36 1021.16 1022.06 1022.82 1023.69 1024.77 1026.09 1027.11 1027.78 1028.33 1028.98 1029.32 1029.57 1029.83 1029.78 1029.86 1029.88
Wind_Speed
10 11 16 20 18 19 13 13 15 11 3 6 14 16 14 14 12 13 12 10 8 6 4 5 7 8 9 8 9 9 10 9 7 7 8 9 9 9 10 10 14 14 13 13
5 17 18 15 11 16 17 16 16 14 5 5 15 19 17 14 16 15 13 11 10 8 8 7 8 8 8 9 8 9 8 8 6 6 7 7 9 10 10 9 12 14 15 14
19 8 8 16 10 12 16 18 15 17 3 11 15 22 24 20 11 7 9 8 9 11 11 9 10 10 10 9 8 9 9 9 9 12 10 10 11 9 9 9 9 11 14 14
18 19 9 12 15 13 17 16 16 15 8 11 3 13 10 12 14 14 13 12 12 11 11 10 11 11 11 9 8 11 12 12 10 10 10 13 10 10 9 9 9 10 14 14
7 8 14 16 16 15 9 2 8 11 14 16 18 11 6 3 13 19 17 16 14 13 13 13 12 12 12 11 11 12 13 12 10 12 12 10 12 9 8 8 11 11 11 12
16 4 9 9 2 12 10 7 3 3 7 14 15 17 11 11 12 14 17 18 17 16 14 13 12 12 11 11 11 11 14 14 11 12 13 13 13 11 8 8 7 7 7 8
18 18 6 5 7 3 13 8 4 6 7 10 1 14 15 6 5 11 21 21 20 19 17 16 15 13 12 12 11 11 12 14 14 14 14 14 14 13 11 9 8 7 7 6
15 11 24 18 25 14 21 18 8 7 7 5 1 11 6 5 5 6 18 19 19 19 16 16 15 14 14 14 13 14 14 14 13 13 14 12 12 8 8 8 7 6 6 5
11 13 4 10 16 21 12 17 9 3 2 5 8 11 3 6 7 12 18 19 19 20 18 18 16 14 14 13 13 13 13 13 12 12 11 11 10 10 9 9 7 6 6 5
6 10 4 6 4 10 11 11 7 5 7 8 9 12 10 11 14 16 20 21 21 19 18 17 16 15 14 13 13 13 13 13 13 12 10 9 10 9 8 7 8 8 7 8
11 9 4 6 14 17 10 13 10 7 9 3 4 6 4 10 19 21 20 21 21 20 19 18 16 15 14 14 14 13 13 13 12 11 11 10 9 8 8 8 8 7 7 7
19 4 11 13 3 11 21 14 21 7 7 7 4 8 4 4 12 16 18 18 18 19 18 17 16 15 14 14 14 14 13 12 11 12 11 11 9 8 8 8 7 6 5 4
11 6 4 2 5 4 10 18 17 18 1 13 7 6 1 3 7 13 16 19 18 19 19 17 17 17 16 15 14 14 13 12 11 12 11 10 9 8 8 7 5 4 2 2
11 6 8 14 2 7 10 18 21 18 10 18 18 11 5 7 10 14 16 18 19 20 21 19 18 18 17 16 15 15 15 14 13 11 10 10 8 8 7 5 5 3 2 2
12 9 12 24 5 3 5 12 21 25 30 17 25 20 12 13 14 17 16 16 19 22 22 22 21 18 18 17 16 14 13 12 12 11 9 9 9 7 6 5 4 3 1 3
5 7 11 18 17 10 8 13 16 26 28 27 27 19 3 13 11 14 16 17 20 21 23 22 20 19 20 19 17 15 14 13 12 11 10 9 9 8 6 5 4 3 2 3
10 8 7 9 5 3 7 26 18 21 25 19 24 20 5 3 7 9 12 16 20 22 23 22 24 21 19 19 17 16 15 13 12 11 10 9 8 8 7 6 4 3 2 3
6 4 3 1 5 9 1 4 18 23 17 18 5 2 6 4 4 3 3 14 15 14 16 18 17 18 18 18 17 15 14 13 12 11 10 9 8 8 7 5 4 2 1 2
3 3 3 4 6 8 3 4 7 10 11 8 14 9 7 5 4 8 8 5 9 13 13 15 16 16 16 17 17 16 15 14 12 12 11 10 9 7 7 4 3 2 1 3
2 3 4 4 5 6 1 3 1 5 8 9 13 12 9 11 9 8 7 5 4 6 8 11 15 14 17 17 16 17 15 14 13 12 11 10 9 7 6 5 4 2 2 4
4 3 10 8 6 4 3 6 2 7 4 2 7 7 10 7 1 5 8 7 6 7 9 11 14 14 14 14 16 15 14 14 12 11 11 10 9 7 6 5 4 3 3 4
10 9 5 4 6 9 6 7 8 0 2 3 4 6 7 4 5 5 7 7 8 10 10 10 10 10 11 13 14 14 14 11 12 12 11 9 8 6 6 5 4 4 4 5
5 4 4 8 4 0 8 2 3 2 3 3 2 3 5 6 5 7 7 8 8 10 9 8 10 11 8 10 11 13 11 13 12 11 9 8 7 6 5 5 5 4 5 4
5 2 3 2 1 2 5 3 2 2 0 0 1 4 6 8 7 6 6 7 7 7 8 5 9 9 9 8 7 7 12 12 12 10 9 7 6 7 6 5 5 4 4 4
2 6 4 2 4 4 6 9 7 4 2 2 2 4 8 6 5 6 6 6 6 7 6 8 9 9 10 9 9 9 12 13 11 9 8 8 6 7 6 6 5 5 5 5
6 6 5 2 4 1 4 9 10 8 8 7 7 4 4 5 6 5 5 5 6 8 7 7 7 6 7 10 10 10 11 12 12 10 8 7 6 6 6 5 5 11 12 13
Wind_Direction
203 216 218 224 224 252 283 284 263 256 143 261 240 252 247 193 211 216 209 203 194 174 133 116 101 95 94 89 95 93 97 94 93 91 93 87 91 84 76 67 65 59 57 60
180 229 239 243 272 238 247 259 258 259 229 244 265 263 256 213 217 219 216 207 191 168 159 136 125 110 100 102 104 106 106 104 96 87 92 94 96 87 84 77 71 66 63 54
225 230 218 222 228 226 236 244 254 260 266 242 274 267 253 237 211 222 230 209 183 180 161 151 145 127 121 114 115 114 108 101 99 105 105 103 103 98 90 80 73 65 67 64
248 248 206 204 227 216 246 235 248 263 258 261 165 287 281 194 208 215 203 192 183 167 159 151 146 136 121 112 106 104 103 103 108 117 111 100 95 94 85 79 75 63 57 54
221 190 200 218 218 200 251 78 219 238 255 274 255 264 276 162 214 210 199 190 179 169 162 153 141 131 123 126 117 112 108 102 96 102 103 101 103 101 102 97 92 86 74 59
268 8 224 225 111 196 128 111 110 236 260 255 238 235 261 198 229 197 186 184 171 167 159 145 135 133 124 122 118 113 111 104 101 101 101 102 105 104 98 91 81 70 62 57
229 227 191 185 143 151 200 177 230 235 208 256 238 221 255 176 184 188 181 180 174 165 159 153 152 144 139 132 126 122 118 111 106 103 99 98 99 98 93 86 74 68 60 52
216 228 199 193 215 198 201 196 195 236 213 247 63 233 233 40 90 176 174 175 172 169 165 163 161 153 146 147 144 136 126 118 114 110 107 103 98 91 89 89 93 87 76 48
213 238 262 182 218 212 187 222 232 22 176 280 215 239 190 163 167 168 168 172 177 174 171 168 164 162 157 154 149 139 133 125 120 114 109 107 108 107 109 99 88 83 81 72
269 267 177 160 184 241 208 154 164 194 215 231 243 251 232 204 190 180 179 181 178 176 173 172 171 168 163 158 151 148 143 135 130 124 120 115 115 109 103 100 95 78 64 49
230 245 128 153 204 185 176 202 218 207 228 249 274 236 133 201 189 186 186 184 179 177 176 173 172 172 167 164 161 155 150 142 140 135 131 127 122 117 110 98 83 72 60 42
211 224 225 212 106 252 220 208 205 206 186 232 291 258 120 93 177 184 187 182 180 181 176 174 174 173 170 169 167 165 158 154 151 146 141 135 133 122 103 91 84 71 56 41
164 201 181 235 224 207 225 219 222 228 328 222 199 245 80 141 173 180 182 181 182 179 177 176 178 180 177 176 174 170 165 160 152 148 143 139 129 117 103 99 102 99 80 34
160 185 225 228 145 146 201 206 208 214 225 237 234 245 193 206 182 177 182 181 182 183 182 182 184 184 182 178 177 174 170 162 159 153 148 141 132 123 124 135 125 110 61 16
176 220 210 246 251 78 280 228 208 210 227 215 247 234 222 202 194 191 180 177 184 187 188 191 187 184 182 178 178 174 168 157 158 154 148 142 135 134 147 145 132 119 75 11
192 226 217 244 244 225 232 247 230 221 231 233 245 248 53 182 182 171 178 182 192 194 198 194 187 182 185 179 176 171 165 163 159 154 151 140 148 151 163 152 151 128 58 13
180 204 184 239 206 147 248 227 228 230 226 233 235 242 119 116 173 199 185 190 197 200 198 194 192 186 184 177 172 168 162 154 159 152 148 147 152 171 171 162 139 102 46 1
177 191 181 158 132 224 311 10 237 224 237 228 246 156 145 138 201 311 222 200 205 205 198 197 189 183 181 171 165 159 156 155 156 153 148 154 166 175 171 153 134 112 39 328
292 179 167 211 211 325 245 189 163 181 243 207 222 206 147 114 79 260 218 232 214 204 202 195 186 177 169 165 161 150 151 157 157 159 160 165 172 169 164 146 142 118 305 296
235 311 230 168 214 227 344 139 198 94 274 206 196 220 170 145 210 236 157 166 166 153 164 159 163 165 167 166 155 151 157 161 168 165 163 161 164 164 156 157 149 164 238 269
169 200 221 211 225 247 200 143 150 149 271 50 181 142 145 194 210 97 131 156 150 137 139 143 155 163 165 151 150 154 158 175 164 150 147 158 163 152 152 157 164 182 233 264
175 172 199 214 230 251 131 97 185 355 14 109 132 165 180 140 127 134 146 138 134 126 134 139 140 142 142 155 155 160 171 155 143 143 155 158 147 160 162 150 175 202 222 241
210 213 191 209 212 73 206 70 165 343 123 189 172 161 165 143 161 143 142 143 146 146 144 146 145 139 148 157 163 160 158 145 143 149 152 148 150 166 160 174 192 211 212 240
227 156 238 219 122 279 228 244 266 221 48 28 301 156 173 166 150 137 132 141 144 149 154 138 134 148 157 165 165 149 146 144 145 151 150 148 161 174 178 192 200 212 223 239
78 154 152 297 264 288 248 236 237 184 155 174 163 185 189 152 160 152 148 157 165 163 151 158 167 174 175 165 164 145 150 145 152 149 152 168 180 183 179 204 209 215 225 228
180 162 189 208 183 246 223 214 207 176 200 198 175 162 166 152 163 142 174 177 170 174 156 168 182 169 166 166 164 156 152 158 154 157 165 176 176 178 191 200 218 231 239 247